Volver al catálogo

FENGYUN 1C DEB

ActivoSSO
NORAD 32093·DEBRIS·🇨🇳 China

Lanzado May 10, 1999 desde Taiyuan Satellite Launch Center

Loading…

Próximos Pases (próximas 24 horas)

TLE

ActualizadoSource: Space-Track

Época: Sep 13, 2026, 13:58 UTC

1 32093U 99025CQK 26256.58250766  .00000597  00000-0  20543-3 0  9990
2 32093  98.8879 124.4214 0077375 262.4611  96.7780 14.38199997  3535

Sigue FENGYUN 1C DEB en tiempo real con AllMySat

Download on the App Store